SCP
0 0 0 0 0 0 0 0 0 0 0 0 0 0 0 0 0 0 0 0 0 0 0 0 0 0 0 0 0 0 0 0 0 0 0 0 0 0 0 0 0 0 0
0 0 0 0 0 0 0 0 0 0 0 0 0 0 0 0 0 0 0 0 0 0 0 0 0 0 0 0 0 0 0 0 0 0 0 0 0 0 0 0 0 0 0
0 0 0 0 0 0 0 0 0 0 0 0 0 0 0 0 0 0 0 0 0 0 0 0 0 0 0 0 0 0 0 0 0 0 0 0 0 0 0 0 0 0 0
0 0 0 0 0 0 0 0 0 0 0 0 0 0 0 0 0 0 0 0 0 -0 0 0 0 0 0 0 0 0 0 0 0 0 0 0 0 0 0 0 0 0 0
0 0 0 0 0 0 0 0 0 0 0 0 0 0 0 0 0 0 0 0 0 0 0 0 0 0 0 0 0 0 0 0 0 0 0 0 0 0 0 0 0 0 0
0 0 0 0 0 0 0 0 0 0 0 0 0 0 0 0 0 -0 0 0 0 0 0 0 0 0 -0 -0 -0 0 0 0 0 0 -0 0 0 0 0 0 0 0 0
0 0 0 0 0 0 0 0 0 0 0 0 0 0 0 0 -0 0 0 0 0 0 0 -0 0 0 0 -0 -0 0 0 0 0 0 0 0 0 0 0 0 0 0 0
0 0 0 0 0 0 0 0 0 0 0 0 0 0 0 0 0 0 0 0 0 0 0 -0 -0 0 0 0 0 0 0 0 0 0 0 0 0 0 0 0 0 0 0
0 0 0 0 0 0 0 0 0 0 0 0 0 0 0 0 0 0 0 0 0 0 -0 -0 -0 0 -0 -0 0 0 0 0 0 0 0 0 0 0 0 0 0 0 0
0 0 0 0 0 0 0 0 0 0 0 0 0 0 0 0 0 0 0 0 0 0 0 0 -0 -0 -0 -0 -0 -0 0 0 0 0 0 0 0 0 0 0 0 0 0
0 0 0 0 0 0 0 0 0 0 0 0 0 0 0 0 0 0 0 0 0 0 0 0 0 -0 -0 -0 -0 0 0 0 0 0 0 0 0 0 0 0 0 0 0
0 0 0 0 0 0 0 0 0 0 -0 0 0 0 0 0 0 0 0 0 0 0 0 0 0 0 -0 -0 -0 -0 0 0 0 0 0 0 0 0 0 0 0 0 0
0 0 0 0 0 0 0 0 0 0 0 0 0 0 0 0 0 0 0 0 0 0 0 0 -0 -0 -0 -0 -0 -0 0 0 0 0 0 0 0 0 0 0 0 0 0
0 0 0 0 0 0 0 0 0 0 0 0 0 0 0 0 0 0 0 0 0 0 0 0 0 0 -0 -0 0 -0 -0 0 0 0 0 0 0 0 0 0 0 0 0
0 0 0 0 0 0 0 0 0 -0 0 0 0 0 0 0 0 0 0 0 0 0 0 0 0 0 0 0 0 -0 0 0 -0 0 0 0 0 0 0 0 0 0 0
0 0 0 0 0 0 0 0 0 0 -0 -0 -0 -0 0 0 0 0 0 0 0 0 0 0 0 0 0 0 0 0 0 0 0 0 -0 0 0 0 0 0 0 0 0
0 0 0 0 0 0 0 0 0 0 0 -0 0 0 -0 -0 -0 -0 -0 -0 0 0 0 0 0 0 0 0 0 0 0 0 0 0 0 0 0 0 0 0 0 0 0
0 0 0 0 0 0 0 0 0 0 0 0 0 -0 -0 -0 -0 -0 0 0 0 0 0 0 0 0 0 0 0 0 0 0 0 0 0 0 0 0 -0 -0 -0 -0 0
0 0 0 0 0 0 0 0 0 0 0 0 0 0 0 -0 0 0 0 0 0 0 0 0 0 0 0 0 0 0 0 0 0 0 0 0 0 0 -0 -0 -0 -0 0
0 0 0 0 0 0 0 0 0 0 0 0 0 0 0 0 0 0 0 0 -0 0 0 0 0 0 0 0 0 0 0 0 0 0 0 -0 -0 -0 -0 0 0 0 0
0 0 0 0 0 0 0 0 0 0 0 0 0 0 0 0 0 0 0 0 0 0 0 0 0 0 0 0 0 0 0 0 0 0 0 0 0 0 0 0 0 0 0
0 0 0 0 0 0 0 0 0 0 0 0 0 0 0 0 0 0 0 0 0 0 0 0 0 0 0 0 0 0 0 0 0 0 0 0 0 0 0 0 0 0 0
0 0 0 0 0 0 0 0 0 0 0 0 0 0 0 0 0 0 0 0 0 0 0 0 0 0 0 0 0 0 0 0 0 0 0 0 0 0 0 0 0 0 0
0 0 0 0 0 0 0 0 0 0 0 0 0 0 0 0 0 0 0 0 0 0 0 0 0 0 0 0 0 0 0 0 0 0 0 0 0 0 0 0 0 0 0
0 0 0 0 0 0 0 0 0 0 0 0 0 0 0 0 0 0 0 0 0 0 0 0 0 0 0 0 0 0 0 0 0 0 0 0 0 0 0 0 0 0 0
0 0 0 0 0 0 0 0 0 0 0 0 0 0 0 0 0 0 0 0 0 0 0 0 0 0 0 0 0 0 0 0 0 0 0 0 0 0 0 0 0 0 0
Wind_Speed_500mb
36 37 39 44 52 53 51 47 41 38 36 38 42 43 44 45 40 40 42 48 52 54 55 57 62 60 69 71 68 68 75 76 79 69 72 76 61 57 56 52 55 52 54
33 34 37 46 51 49 44 38 35 36 36 36 40 42 45 43 42 42 45 47 51 55 57 60 60 60 62 63 73 78 79 82 81 72 61 66 60 54 46 52 52 48 57
31 31 34 46 47 43 38 34 33 34 35 35 38 42 43 44 45 45 48 45 48 51 54 58 61 60 63 65 70 68 71 67 74 75 74 70 66 60 58 45 47 41 41
29 28 33 42 43 38 32 30 30 29 31 35 35 35 38 40 41 42 40 43 45 44 48 55 56 58 64 64 66 65 64 63 64 68 69 69 65 63 60 58 50 37 38
27 24 28 35 32 35 31 30 28 27 29 32 31 32 33 35 31 31 40 41 41 44 47 44 44 49 53 54 55 60 49 61 68 43 65 69 72 67 63 62 55 51 48
26 22 21 24 25 28 30 26 26 25 26 28 28 31 32 27 25 29 32 31 32 36 42 44 45 47 42 43 51 54 68 56 64 52 68 73 72 65 63 61 61 58 42
25 23 20 18 22 24 28 23 25 25 24 26 30 30 26 22 29 25 25 26 27 28 31 34 34 32 29 29 32 30 38 42 52 53 46 40 54 61 65 58 58 58 53
25 26 26 24 25 21 23 21 21 24 25 26 27 28 23 21 26 25 21 22 21 21 22 23 23 24 23 18 24 24 24 26 36 40 54 39 25 32 41 51 56 54 34
25 27 29 29 29 23 23 18 19 20 21 23 23 22 25 25 26 25 22 24 29 35 37 39 34 24 14 12 14 18 19 20 23 28 27 36 25 35 34 44 51 59 59
24 26 29 27 26 21 23 19 17 17 18 16 15 14 17 18 20 18 17 19 24 28 34 43 45 42 26 9 7 9 13 14 17 21 23 28 17 13 22 33 48 60 63
27 27 28 26 24 20 22 17 15 16 9 13 14 18 15 14 17 18 19 22 28 29 35 42 46 43 40 31 14 4 0 6 15 24 26 29 28 29 35 32 28 46 48
28 28 28 24 24 20 20 16 12 16 12 14 14 12 13 14 17 19 22 24 25 28 35 37 38 37 41 42 38 28 17 16 20 28 40 36 38 37 36 38 42 49 40
30 29 29 26 25 23 19 18 14 17 16 9 9 4 10 15 21 25 27 28 30 31 34 34 32 34 37 43 46 38 27 23 27 31 33 39 36 31 31 35 35 38 30
33 33 32 30 28 26 21 20 17 17 18 14 8 1 8 11 15 20 24 28 31 32 33 30 30 31 35 41 43 49 50 48 42 42 43 41 40 36 33 32 29 29 24
36 38 38 35 32 30 26 22 19 18 17 12 11 8 6 5 11 16 18 21 26 30 27 25 28 32 35 37 39 42 47 48 51 48 44 43 42 40 42 38 35 34 40
44 45 45 41 37 35 32 27 23 20 17 14 13 12 8 7 10 12 14 17 22 23 16 25 30 33 37 38 38 39 39 39 39 37 39 40 39 38 38 37 39 42 51
53 51 51 48 45 42 42 33 28 23 21 19 18 16 13 8 7 10 13 15 18 21 20 26 31 33 34 34 36 38 43 43 38 37 37 37 38 39 38 40 41 43 48
51 55 58 56 52 49 47 38 33 29 25 23 18 17 16 12 9 8 9 11 14 16 20 25 28 30 29 30 32 34 37 36 36 38 40 39 36 36 39 40 38 36 39
55 57 63 64 59 54 50 45 40 37 33 30 25 19 14 13 11 9 7 7 9 12 16 19 23 24 24 26 28 29 28 31 33 32 35 36 34 31 37 37 35 33 31
61 59 65 69 67 63 59 56 50 45 39 35 31 25 22 18 15 10 6 3 4 7 10 12 15 17 19 21 23 24 23 26 27 27 28 29 29 26 29 31 29 29 29
63 63 68 73 76 71 67 65 58 52 45 40 34 30 26 24 21 15 10 6 3 1 2 4 6 8 11 14 16 17 17 18 20 20 22 22 23 22 25 25 26 25 24
62 64 70 79 79 78 74 69 63 57 50 46 43 37 33 30 25 19 15 13 11 9 6 3 1 2 4 6 8 10 12 13 13 13 14 15 16 16 18 18 19 19 20
62 65 71 79 83 82 78 73 67 63 57 52 45 43 39 32 27 22 19 18 15 13 12 10 8 6 4 2 1 2 4 6 7 8 6 8 10 12 12 12 12 12 13
67 71 74 81 85 87 82 77 73 67 62 56 50 47 40 35 29 27 25 23 20 19 18 16 14 12 10 8 7 6 4 3 2 2 4 4 6 9 9 10 10 11 12
74 76 78 84 88 89 86 81 77 71 66 60 54 47 40 37 35 31 28 25 24 23 21 20 19 18 16 15 13 12 11 9 8 8 7 8 8 9 9 9 8 10 11
74 78 79 83 86 87 89 82 78 73 68 62 55 47 41 37 33 32 31 30 27 26 25 25 25 24 22 20 19 18 16 15 14 13 14 14 14 14 14 12 11 12 14
Wind_Direction_500mb
307 308 312 315 317 316 311 307 306 308 310 306 305 302 298 294 295 292 287 285 282 279 277 273 272 269 263 258 262 267 265 259 261 267 267 262 266 274 271 258 250 255 258
308 307 314 320 322 318 314 314 312 307 305 305 302 300 298 294 292 291 288 287 286 284 279 272 271 268 267 264 261 266 264 257 259 258 262 263 263 268 273 268 258 251 250
306 306 319 329 327 326 325 319 316 315 309 304 300 299 301 298 294 293 294 295 291 290 287 282 276 272 269 267 262 263 256 255 251 257 261 260 256 260 264 257 246 244 252
302 306 327 334 332 327 333 326 324 324 321 314 312 313 313 309 302 298 297 292 292 293 292 285 277 274 271 270 264 255 260 258 255 254 250 253 254 252 252 245 246 245 253
298 302 325 334 333 334 341 339 333 328 328 327 325 324 322 316 314 315 303 301 298 294 294 291 284 282 278 268 263 258 262 248 245 247 239 245 247 247 244 244 245 244 248
295 294 311 330 342 343 338 341 343 336 341 347 346 336 330 334 332 317 313 307 301 298 296 293 292 290 280 263 261 253 252 245 251 257 251 250 239 241 239 239 236 224 222
292 284 283 305 338 349 340 349 355 349 357 3 356 348 344 345 343 337 329 326 319 313 310 302 297 296 290 263 253 256 248 249 250 250 245 249 249 238 235 237 233 222 216
288 279 271 275 307 325 340 353 1 0 0 3 358 355 359 8 4 355 353 350 346 346 349 350 330 312 291 264 248 249 242 243 241 242 247 243 240 230 235 237 231 208 199
286 280 273 276 288 307 297 336 6 3 2 0 359 8 23 22 32 27 33 44 45 42 38 37 24 3 316 276 250 246 240 250 247 241 247 221 225 245 224 220 207 193 168
282 280 273 277 282 294 307 299 305 334 355 3 11 30 32 28 42 39 43 38 45 43 40 44 38 27 19 352 281 255 239 226 213 201 207 217 229 203 216 203 203 192 169
269 276 273 274 277 288 291 297 311 294 305 320 346 4 3 20 36 36 37 35 31 33 42 42 40 32 38 41 46 96 178 150 174 165 162 160 157 156 167 163 182 185 182
266 273 271 267 270 274 279 281 291 291 276 287 315 354 17 27 44 45 43 43 41 39 45 45 45 40 38 47 46 54 79 108 130 137 138 135 137 143 148 162 172 187 187
259 266 268 260 261 261 264 265 270 278 274 275 289 0 50 53 57 56 52 48 47 45 48 50 51 52 52 55 54 56 75 97 111 118 119 125 133 139 138 153 163 174 184
264 261 261 259 256 252 250 253 258 262 265 258 253 89 63 53 55 54 50 47 45 46 46 50 55 61 64 65 71 71 71 80 88 93 99 105 112 118 132 141 151 154 154
267 257 254 253 248 246 241 243 251 257 251 237 195 168 120 99 72 59 53 52 50 46 40 50 60 66 68 69 72 74 77 77 79 82 89 97 107 117 122 127 131 141 141
264 257 250 249 243 241 236 236 236 240 238 212 182 169 157 123 83 67 60 57 60 58 51 64 66 63 67 71 73 77 77 78 82 88 91 93 100 107 115 124 133 137 135
261 254 248 242 240 234 233 226 232 227 232 222 192 177 163 135 96 76 67 65 65 62 57 65 68 70 70 69 72 77 80 80 82 86 87 92 98 101 105 111 119 124 127
262 249 245 238 239 233 231 222 221 222 224 220 208 188 173 162 146 107 78 71 70 72 67 70 70 70 72 74 77 76 78 82 84 87 91 92 97 105 112 115 120 124 125
259 249 239 234 231 233 229 222 216 215 218 217 207 201 198 192 186 158 130 96 80 79 78 70 69 70 72 74 76 81 83 85 84 87 91 93 95 102 108 114 118 122 129
255 245 237 232 225 226 223 221 214 212 214 214 213 211 208 210 210 191 161 129 63 62 65 68 68 68 68 69 73 79 81 86 89 92 94 97 101 101 106 110 113 117 123
251 240 233 227 224 224 222 219 216 212 213 215 214 218 219 216 209 207 198 201 230 225 45 63 62 65 67 70 72 77 78 84 91 95 100 104 104 110 112 114 117 118 122
244 236 230 225 221 220 221 220 218 214 210 213 214 218 220 220 217 210 211 215 219 217 217 216 214 103 77 74 72 76 77 81 86 95 104 111 115 116 115 117 120 122 125
239 233 227 225 222 220 220 219 218 216 213 212 214 219 223 220 222 222 222 227 227 229 229 230 231 240 246 249 133 89 85 83 80 87 97 116 127 131 130 128 128 134 139
237 233 227 224 222 219 219 218 216 216 216 214 214 219 222 222 224 227 227 230 232 231 231 232 235 236 236 235 239 240 238 214 202 189 167 174 164 158 157 155 151 158 162
232 230 226 223 221 219 218 218 217 216 217 216 216 217 219 221 223 226 229 232 235 236 236 240 243 243 240 239 239 240 239 239 237 242 227 217 209 201 192 185 180 178 178
228 226 224 223 221 220 217 217 217 216 217 217 217 217 220 225 227 229 230 233 235 237 239 241 243 243 242 241 241 240 241 241 241 244 238 233 227 220 214 209 205 200 198
Wind_Speed_850mb
36 37 39 44 52 53 51 47 41 38 36 38 42 43 44 45 40 40 42 48 52 54 55 57 62 60 69 71 68 68 75 76 79 69 72 76 61 57 56 52 55 52 54
33 34 37 46 51 49 44 38 35 36 36 36 40 42 45 43 42 42 45 47 51 55 57 60 60 60 62 63 73 78 79 82 81 72 61 66 60 54 46 52 52 48 57
31 31 34 46 47 43 38 34 33 34 35 35 38 42 43 44 45 45 48 45 48 51 54 58 61 60 63 65 70 68 71 67 74 75 74 70 66 60 58 45 47 41 41
29 28 33 42 43 38 32 30 30 29 31 35 35 35 38 40 41 42 40 43 45 44 48 55 56 58 64 64 66 65 64 63 64 68 69 69 65 63 60 58 50 37 38
27 24 28 35 32 35 31 30 28 27 29 32 31 32 33 35 31 31 40 41 41 44 47 44 44 49 53 54 55 60 49 61 68 43 65 69 72 67 63 62 55 51 48
26 22 21 24 25 28 30 26 26 25 26 28 28 31 32 27 25 29 32 31 32 36 42 44 45 47 42 43 51 54 68 56 64 52 68 73 72 65 63 61 61 58 42
25 23 20 18 22 24 28 23 25 25 24 26 30 30 26 22 29 25 25 26 27 28 31 34 34 32 29 29 32 30 38 42 52 53 46 40 54 61 65 58 58 58 53
25 26 26 24 25 21 23 21 21 24 25 26 27 28 23 21 26 25 21 22 21 21 22 23 23 24 23 18 24 24 24 26 36 40 54 39 25 32 41 51 56 54 34
25 27 29 29 29 23 23 18 19 20 21 23 23 22 25 25 26 25 22 24 29 35 37 39 34 24 14 12 14 18 19 20 23 28 27 36 25 35 34 44 51 59 59
24 26 29 27 26 21 23 19 17 17 18 16 15 14 17 18 20 18 17 19 24 28 34 43 45 42 26 9 7 9 13 14 17 21 23 28 17 13 22 33 48 60 63
27 27 28 26 24 20 22 17 15 16 9 13 14 18 15 14 17 18 19 22 28 29 35 42 46 43 40 31 14 4 0 6 15 24 26 29 28 29 35 32 28 46 48
28 28 28 24 24 20 20 16 12 16 12 14 14 12 13 14 17 19 22 24 25 28 35 37 38 37 41 42 38 28 17 16 20 28 40 36 38 37 36 38 42 49 40
30 29 29 26 25 23 19 18 14 17 16 9 9 4 10 15 21 25 27 28 30 31 34 34 32 34 37 43 46 38 27 23 27 31 33 39 36 31 31 35 35 38 30
33 33 32 30 28 26 21 20 17 17 18 14 8 1 8 11 15 20 24 28 31 32 33 30 30 31 35 41 43 49 50 48 42 42 43 41 40 36 33 32 29 29 24
36 38 38 35 32 30 26 22 19 18 17 12 11 8 6 5 11 16 18 21 26 30 27 25 28 32 35 37 39 42 47 48 51 48 44 43 42 40 42 38 35 34 40
44 45 45 41 37 35 32 27 23 20 17 14 13 12 8 7 10 12 14 17 22 23 16 25 30 33 37 38 38 39 39 39 39 37 39 40 39 38 38 37 39 42 51
53 51 51 48 45 42 42 33 28 23 21 19 18 16 13 8 7 10 13 15 18 21 20 26 31 33 34 34 36 38 43 43 38 37 37 37 38 39 38 40 41 43 48
51 55 58 56 52 49 47 38 33 29 25 23 18 17 16 12 9 8 9 11 14 16 20 25 28 30 29 30 32 34 37 36 36 38 40 39 36 36 39 40 38 36 39
55 57 63 64 59 54 50 45 40 37 33 30 25 19 14 13 11 9 7 7 9 12 16 19 23 24 24 26 28 29 28 31 33 32 35 36 34 31 37 37 35 33 31
61 59 65 69 67 63 59 56 50 45 39 35 31 25 22 18 15 10 6 3 4 7 10 12 15 17 19 21 23 24 23 26 27 27 28 29 29 26 29 31 29 29 29
63 63 68 73 76 71 67 65 58 52 45 40 34 30 26 24 21 15 10 6 3 1 2 4 6 8 11 14 16 17 17 18 20 20 22 22 23 22 25 25 26 25 24
62 64 70 79 79 78 74 69 63 57 50 46 43 37 33 30 25 19 15 13 11 9 6 3 1 2 4 6 8 10 12 13 13 13 14 15 16 16 18 18 19 19 20
62 65 71 79 83 82 78 73 67 63 57 52 45 43 39 32 27 22 19 18 15 13 12 10 8 6 4 2 1 2 4 6 7 8 6 8 10 12 12 12 12 12 13
67 71 74 81 85 87 82 77 73 67 62 56 50 47 40 35 29 27 25 23 20 19 18 16 14 12 10 8 7 6 4 3 2 2 4 4 6 9 9 10 10 11 12
74 76 78 84 88 89 86 81 77 71 66 60 54 47 40 37 35 31 28 25 24 23 21 20 19 18 16 15 13 12 11 9 8 8 7 8 8 9 9 9 8 10 11
74 78 79 83 86 87 89 82 78 73 68 62 55 47 41 37 33 32 31 30 27 26 25 25 25 24 22 20 19 18 16 15 14 13 14 14 14 14 14 12 11 12 14
Wind_Direction_850mb
307 308 312 315 317 316 311 307 306 308 310 306 305 302 298 294 295 292 287 285 282 279 277 273 272 269 263 258 262 267 265 259 261 267 267 262 266 274 271 258 250 255 258
308 307 314 320 322 318 314 314 312 307 305 305 302 300 298 294 292 291 288 287 286 284 279 272 271 268 267 264 261 266 264 257 259 258 262 263 263 268 273 268 258 251 250
306 306 319 329 327 326 325 319 316 315 309 304 300 299 301 298 294 293 294 295 291 290 287 282 276 272 269 267 262 263 256 255 251 257 261 260 256 260 264 257 246 244 252
302 306 327 334 332 327 333 326 324 324 321 314 312 313 313 309 302 298 297 292 292 293 292 285 277 274 271 270 264 255 260 258 255 254 250 253 254 252 252 245 246 245 253
298 302 325 334 333 334 341 339 333 328 328 327 325 324 322 316 314 315 303 301 298 294 294 291 284 282 278 268 263 258 262 248 245 247 239 245 247 247 244 244 245 244 248
295 294 311 330 342 343 338 341 343 336 341 347 346 336 330 334 332 317 313 307 301 298 296 293 292 290 280 263 261 253 252 245 251 257 251 250 239 241 239 239 236 224 222
292 284 283 305 338 349 340 349 355 349 357 3 356 348 344 345 343 337 329 326 319 313 310 302 297 296 290 263 253 256 248 249 250 250 245 249 249 238 235 237 233 222 216
288 279 271 275 307 325 340 353 1 0 0 3 358 355 359 8 4 355 353 350 346 346 349 350 330 312 291 264 248 249 242 243 241 242 247 243 240 230 235 237 231 208 199
286 280 273 276 288 307 297 336 6 3 2 0 359 8 23 22 32 27 33 44 45 42 38 37 24 3 316 276 250 246 240 250 247 241 247 221 225 245 224 220 207 193 168
282 280 273 277 282 294 307 299 305 334 355 3 11 30 32 28 42 39 43 38 45 43 40 44 38 27 19 352 281 255 239 226 213 201 207 217 229 203 216 203 203 192 169
269 276 273 274 277 288 291 297 311 294 305 320 346 4 3 20 36 36 37 35 31 33 42 42 40 32 38 41 46 96 178 150 174 165 162 160 157 156 167 163 182 185 182
266 273 271 267 270 274 279 281 291 291 276 287 315 354 17 27 44 45 43 43 41 39 45 45 45 40 38 47 46 54 79 108 130 137 138 135 137 143 148 162 172 187 187
259 266 268 260 261 261 264 265 270 278 274 275 289 0 50 53 57 56 52 48 47 45 48 50 51 52 52 55 54 56 75 97 111 118 119 125 133 139 138 153 163 174 184
264 261 261 259 256 252 250 253 258 262 265 258 253 89 63 53 55 54 50 47 45 46 46 50 55 61 64 65 71 71 71 80 88 93 99 105 112 118 132 141 151 154 154
267 257 254 253 248 246 241 243 251 257 251 237 195 168 120 99 72 59 53 52 50 46 40 50 60 66 68 69 72 74 77 77 79 82 89 97 107 117 122 127 131 141 141
264 257 250 249 243 241 236 236 236 240 238 212 182 169 157 123 83 67 60 57 60 58 51 64 66 63 67 71 73 77 77 78 82 88 91 93 100 107 115 124 133 137 135
261 254 248 242 240 234 233 226 232 227 232 222 192 177 163 135 96 76 67 65 65 62 57 65 68 70 70 69 72 77 80 80 82 86 87 92 98 101 105 111 119 124 127
262 249 245 238 239 233 231 222 221 222 224 220 208 188 173 162 146 107 78 71 70 72 67 70 70 70 72 74 77 76 78 82 84 87 91 92 97 105 112 115 120 124 125
259 249 239 234 231 233 229 222 216 215 218 217 207 201 198 192 186 158 130 96 80 79 78 70 69 70 72 74 76 81 83 85 84 87 91 93 95 102 108 114 118 122 129
255 245 237 232 225 226 223 221 214 212 214 214 213 211 208 210 210 191 161 129 63 62 65 68 68 68 68 69 73 79 81 86 89 92 94 97 101 101 106 110 113 117 123
251 240 233 227 224 224 222 219 216 212 213 215 214 218 219 216 209 207 198 201 230 225 45 63 62 65 67 70 72 77 78 84 91 95 100 104 104 110 112 114 117 118 122
244 236 230 225 221 220 221 220 218 214 210 213 214 218 220 220 217 210 211 215 219 217 217 216 214 103 77 74 72 76 77 81 86 95 104 111 115 116 115 117 120 122 125
239 233 227 225 222 220 220 219 218 216 213 212 214 219 223 220 222 222 222 227 227 229 229 230 231 240 246 249 133 89 85 83 80 87 97 116 127 131 130 128 128 134 139
237 233 227 224 222 219 219 218 216 216 216 214 214 219 222 222 224 227 227 230 232 231 231 232 235 236 236 235 239 240 238 214 202 189 167 174 164 158 157 155 151 158 162
232 230 226 223 221 219 218 218 217 216 217 216 216 217 219 221 223 226 229 232 235 236 236 240 243 243 240 239 239 240 239 239 237 242 227 217 209 201 192 185 180 178 178
228 226 224 223 221 220 217 217 217 216 217 217 217 217 220 225 227 229 230 233 235 237 239 241 243 243 242 241 241 240 241 241 241 244 238 233 227 220 214 209 205 200 198